Flag Weather past 2 weeks in Nukualofa, Tonga

Now
73 °F

Passing clouds.


Feels Like: 73 °F
Forecast: 73 / 81 °F
Wind: No wind

Location: Fua'Amotu

Current Time: Nov 22, 2014 at 1:21:50 AM

Latest Report: Nov 22, 2014 at 1:00 AM


Visibility: N/A

Pressure: 30.01 "Hg

Humidity: 83%

Dew point: 68 °F

Location of NukualofaLocation

Historic Weather in Nukualofa — Graph

°F

Nukualofa temperature yesterday

Maximum temperature yesterday: 84 °F (at 3:00 PM)
Minimum temperature yesterday: 73 °F (at 4:00 AM)
Average temperature yesterday: 77 °F

Past Weeks' High & Low Weather Summary

 TemperatureHumidityPressure
High84 °F (Nov 10, 12:00 PM)100% (Nov 13, 7:00 AM)30.12 "Hg (Nov 13, 7:00 AM)
Low59 °F (Nov 13, 5:00 AM)48% (Nov 16, 2:00 PM)29.68 "Hg (Nov 10, 2:00 AM)
Average75 °F74%29.94 "Hg
* Reported Midnight between Nov 6 and Nov 7 — Midnight between Nov 21 and Nov 22, Nukualofa, Weather by CustomWeather, © 2014

Note: Actual official high and low records may vary slightly from our data, if they occured in-between our weather recording intervals... More about our weather records

Advertising

Nukualofa weather history for previous 24 hours

 ConditionsComfort  
Time TempWeatherWind HumidityBarometerVisibility
12:00 AM
Nov 22
73 °FPassing clouds.2 mph89%30.04 "HgN/A
11:00 PM
Nov 21
73 °FPassing clouds.2 mph89%30.04 "HgN/A
10:00 PM75 °FPassing clouds.6 mph78%30.01 "HgN/A
9:00 PM73 °FPassing clouds.2 mph89%30.01 "HgN/A
8:00 PM75 °FPassing clouds.2 mph83%30.01 "HgN/A
7:00 PM77 °FPartly cloudy.6 mph79%29.98 "HgN/A
6:00 PM77 °FScattered clouds.9 mph74%29.95 "HgN/A
5:00 PM81 °FScattered clouds.6 mph66%29.95 "HgN/A
4:00 PM82 °FScattered clouds.12 mph62%29.95 "HgN/A
3:00 PM84 °FPassing clouds.7 mph62%29.95 "HgN/A
2:00 PM82 °FPassing clouds.12 mph66%29.98 "HgN/A
1:00 PM82 °FPassing clouds.12 mph66%29.98 "HgN/A
12:00 PM82 °FScattered clouds.13 mph62%30.01 "HgN/A
11:00 AM81 °FScattered clouds.13 mph66%30.01 "HgN/A
10:00 AM81 °FScattered clouds.13 mph66%30.01 "HgN/A
9:00 AM79 °FScattered clouds.6 mph74%30.01 "HgN/A
8:00 AM77 °FPassing clouds.7 mph79%30.01 "HgN/A
7:00 AM73 °FPassing clouds.6 mph89%30.01 "HgN/A
6:00 AM73 °FPassing clouds.6 mph83%29.98 "HgN/A
5:00 AM73 °FScattered clouds.No wind83%29.98 "HgN/A
4:00 AM73 °FPassing clouds.No wind83%29.98 "HgN/A
3:00 AM75 °FPassing clouds.No wind83%29.98 "HgN/A
2:00 AM75 °FPassing clouds.No wind83%29.98 "HgN/A
1:00 AM75 °FPartly cloudy.No wind83%30.01 "HgN/A
Weather by CustomWeather, © 2014

See weather overviewHow to use our weather pages